Change the Weather History Date:

Wednesday, January 22, 2014

  Actual Average Record
Temperature  
Mean Temperature -8 °F -  
Max Temperature 3 °F 18 °F 45 °F (1942)
Min Temperature -18 °F -1 °F -43 °F (1936)
Degree Days  
Heating Degree Days 72    
Moisture  
Dew Point -17 °F    
Average Humidity 73    
Maximum Humidity 85    
Minimum Humidity 64    
Precipitation  
Precipitation 0.00 in - - ()
Sea Level Pressure  
Sea Level Pressure 30.40 in    
Wind  
Wind Speed 18 mph (NNW)    
Max Wind Speed 28 mph    
Max Gust Speed 36 mph    
Visibility 2 miles    
Events Snow    
Averages and records for this station are not official NWS values.
T = Trace of Precipitation, MM = Missing Value Source: NWS Daily Summary

Daily Weather History Graph

Daily Weather History Graph

Search for Another Location

Airport or City:

Trip Planner

Search our weather history database for the weather conditions in past years. The results will help you decide how hot, cold, wet, or windy it might be!

Date:

Astronomy

Jan. 22, 2014 Rise Set
Actual Time 8:09 AM CST 5:09 PM CST
Civil Twilight 7:34 AM CST 5:44 PM CST
Nautical Twilight 6:55 AM CST 6:23 PM CST
Astronomical Twilight 6:18 AM CST 7:00 PM CST
Moon No Moon Rise 10:36 AM CST (1/22)
Length of Visible Light 10h 10m
Length of Day
9h 00m
Waning Gibbous, 65% of the Moon is Illuminated
Jan 22
Waning Gibbous
Jan 23
Last Quarter
Jan 30
New
Feb 6
First Quarter
Feb 14
Full

Hourly Weather History & Observations

Time (CST) Temp. Windchill Dew Point Humidity Pressure Visibility Wind Dir Wind Speed Gust Speed Precip Events Conditions
12:13 AM 1.4 °F -15.3 °F -4.0 °F 78% 30.04 in 3.0 mi NW 11.5 mph - N/A Snow Light Snow
12:33 AM 1.4 °F -15.3 °F -2.2 °F 85% 30.04 in 3.0 mi NNW 11.5 mph - N/A Snow Light Snow
12:53 AM 1.4 °F -16.1 °F -2.2 °F 85% 30.04 in 4.0 mi NNW 12.7 mph - N/A Snow Light Snow
1:13 AM 1.4 °F -17.6 °F -2.2 °F 85% 30.04 in 2.5 mi NNW 15.0 mph - N/A Snow Light Snow
1:33 AM 3.2 °F -15.9 °F -2.2 °F 78% 30.05 in 1.8 mi NNW 16.1 mph - N/A Snow Light Snow
1:53 AM 3.2 °F -19.0 °F -2.2 °F 78% 30.06 in 1.0 mi North 23.0 mph 32.2 mph N/A Snow Light Snow
2:13 AM 1.4 °F -21.0 °F -5.8 °F 72% 30.07 in 1.5 mi North 21.9 mph 27.6 mph N/A Snow Light Snow
2:33 AM -0.4 °F -23.3 °F -5.8 °F 78% 30.08 in 1.5 mi North 21.9 mph 31.1 mph N/A Snow Light Snow
2:53 AM -0.4 °F -23.3 °F -7.6 °F 72% 30.09 in 1.8 mi North 21.9 mph 29.9 mph N/A Snow Light Snow
3:13 AM -2.2 °F -25.7 °F -7.6 °F 78% 30.11 in 2.0 mi North 21.9 mph 28.8 mph N/A   Haze
3:33 AM -2.2 °F -27.6 °F -7.6 °F 78% 30.11 in 1.0 mi North 26.5 mph 33.4 mph N/A   Haze
3:53 AM -2.2 °F -25.7 °F -7.6 °F 78% 30.12 in 1.2 mi North 21.9 mph 29.9 mph N/A   Haze
4:13 AM -2.2 °F -27.6 °F -9.4 °F 71% 30.14 in 1.0 mi NNW 26.5 mph 34.5 mph N/A Snow Light Snow
4:33 AM -4.0 °F -29.1 °F -9.4 °F 78% 30.16 in 1.2 mi North 24.2 mph 32.2 mph N/A Snow Light Snow
4:53 AM -5.8 °F -31.0 °F -11.2 °F 77% 30.18 in 1.8 mi North 23.0 mph 28.8 mph N/A   Haze
5:13 AM -7.6 °F -34.8 °F -13.0 °F 77% 30.20 in 1.0 mi North 26.5 mph 35.7 mph N/A Snow Light Snow
5:33 AM -7.6 °F -35.3 °F -14.8 °F 71% 30.22 in 1.0 mi North 27.6 mph 33.4 mph N/A Snow Light Snow
5:53 AM -7.6 °F -34.4 °F -14.8 °F 71% 30.23 in 1.5 mi North 25.3 mph 29.9 mph N/A   Haze
6:13 AM -9.4 °F -36.3 °F -14.8 °F 77% 30.25 in 1.2 mi NNW 24.2 mph 31.1 mph N/A   Haze
6:33 AM -9.4 °F -37.3 °F -16.6 °F 71% 30.27 in 0.8 mi NNW 26.5 mph 33.4 mph N/A Snow Light Snow
6:53 AM -11.2 °F -38.7 °F -16.6 °F 77% 30.28 in 1.2 mi North 24.2 mph 32.2 mph N/A   Overcast
7:13 AM -11.2 °F -39.2 °F -18.4 °F 70% 30.29 in 1.2 mi North 25.3 mph - N/A   Haze
7:34 AM -11.2 °F -39.7 °F -18.4 °F 70% 30.30 in 1.2 mi North 26.5 mph 31.1 mph N/A Snow Light Snow
7:53 AM -13.0 °F -40.0 °F -18.4 °F 77% 30.33 in 1.2 mi North 21.9 mph 32.2 mph N/A Snow Light Snow
8:13 AM -13.0 °F -40.6 °F -20.2 °F 70% 30.34 in 0.8 mi North 23.0 mph 29.9 mph N/A   Haze
8:34 AM -14.8 °F -42.9 °F -20.2 °F 77% 30.35 in 0.8 mi North 23.0 mph 31.1 mph N/A   Haze
8:53 AM -14.8 °F -42.9 °F -20.2 °F 77% 30.36 in - North 23.0 mph 31.1 mph N/A   Overcast
9:13 AM -14.8 °F -43.5 °F -20.2 °F 77% 30.38 in - NNW 24.2 mph 28.8 mph N/A   Overcast
9:33 AM -14.8 °F -42.9 °F -20.2 °F 77% 30.39 in - NNW 23.0 mph 29.9 mph N/A   Overcast
9:53 AM -14.8 °F -42.9 °F -20.2 °F 77% 30.40 in - North 23.0 mph 31.1 mph N/A   Overcast
10:13 AM -14.8 °F -43.5 °F -20.2 °F 77% 30.42 in - NNW 24.2 mph - N/A   Overcast
10:33 AM -14.8 °F -42.9 °F -20.2 °F 77% 30.43 in - NNW 23.0 mph 29.9 mph N/A   Overcast
10:53 AM -14.8 °F -43.5 °F -20.2 °F 77% 30.44 in - NNW 24.2 mph 27.6 mph N/A   Overcast
11:13 AM -13.0 °F -41.6 °F -20.2 °F 70% 30.44 in - NNW 25.3 mph 28.8 mph N/A   Overcast
11:33 AM -13.0 °F -40.6 °F -20.2 °F 70% 30.45 in - NNW 23.0 mph 26.5 mph N/A   Overcast
11:53 AM -13.0 °F -40.0 °F -20.2 °F 70% 30.44 in - NNW 21.9 mph 28.8 mph N/A   Overcast
12:13 PM -13.0 °F -40.6 °F -20.2 °F 70% 30.44 in - NNW 23.0 mph 28.8 mph N/A   Overcast
12:33 PM -13.0 °F -40.0 °F -20.2 °F 70% 30.45 in - NNW 21.9 mph 26.5 mph N/A   Mostly Cloudy
12:54 PM -11.2 °F -37.0 °F -20.2 °F 64% 30.45 in - NNW 20.7 mph 26.5 mph N/A   Mostly Cloudy
1:13 PM -11.2 °F -37.6 °F -18.4 °F 70% 30.46 in - NNW 21.9 mph 25.3 mph N/A   Mostly Cloudy
1:33 PM -11.2 °F -36.4 °F -18.4 °F 70% 30.46 in - NNW 19.6 mph 25.3 mph N/A   Mostly Cloudy
1:53 PM -11.2 °F -35.8 °F -18.4 °F 70% 30.47 in - NW 18.4 mph - N/A   Mostly Cloudy
2:14 PM -11.2 °F -35.8 °F -18.4 °F 70% 30.48 in - NW 18.4 mph - N/A   Mostly Cloudy
2:33 PM -11.2 °F -37.0 °F -18.4 °F 70% 30.48 in - NNW 20.7 mph 25.3 mph N/A   Scattered Clouds
2:53 PM -11.2 °F -37.6 °F -18.4 °F 70% 30.49 in - NNW 21.9 mph 26.5 mph N/A   Scattered Clouds
3:14 PM -11.2 °F -35.8 °F -18.4 °F 70% 30.50 in - NNW 18.4 mph - N/A   Scattered Clouds
3:33 PM -11.2 °F -33.7 °F -18.4 °F 70% 30.51 in - NNW 15.0 mph 23.0 mph N/A   Mostly Cloudy
3:53 PM -11.2 °F -32.1 °F -18.4 °F 70% 30.53 in - NNW 12.7 mph - N/A   Mostly Cloudy
4:14 PM -11.2 °F -34.4 °F -18.4 °F 70% 30.53 in - NNW 16.1 mph - N/A   Overcast
4:33 PM -11.2 °F -35.8 °F -18.4 °F 70% 30.54 in - NNW 18.4 mph 21.9 mph N/A   Overcast
4:53 PM -11.2 °F -37.0 °F -18.4 °F 70% 30.54 in - North 20.7 mph 25.3 mph N/A   Mostly Cloudy
5:14 PM -11.2 °F -33.7 °F -20.2 °F 64% 30.56 in - North 15.0 mph - N/A   Scattered Clouds
5:33 PM -13.0 °F -36.0 °F -20.2 °F 70% 30.56 in - North 15.0 mph - N/A   Clear
5:53 PM -13.0 °F -37.5 °F -20.2 °F 70% 30.57 in - North 17.3 mph - N/A   Scattered Clouds
6:14 PM -13.0 °F -37.5 °F -18.4 °F 77% 30.57 in - North 17.3 mph 21.9 mph N/A   Clear
6:33 PM -13.0 °F -36.8 °F -18.4 °F 77% 30.58 in - North 16.1 mph 21.9 mph N/A   Clear
6:53 PM -13.0 °F -36.8 °F -20.2 °F 70% 30.58 in - North 16.1 mph - N/A   Clear
7:14 PM -13.0 °F -35.2 °F -20.2 °F 70% 30.59 in - North 13.8 mph - N/A   Clear
7:33 PM -14.8 °F -34.6 °F -20.2 °F 77% 30.60 in - North 10.4 mph - N/A   Clear
7:53 PM -14.8 °F -36.6 °F -20.2 °F 77% 30.61 in - North 12.7 mph - N/A   Clear
8:13 PM -14.8 °F -39.1 °F -20.2 °F 77% 30.61 in - North 16.1 mph - N/A   Clear
8:33 PM -14.8 °F -36.6 °F -20.2 °F 77% 30.61 in - NNW 12.7 mph - N/A   Clear
8:53 PM -14.8 °F -34.6 °F -22.0 °F 70% 30.62 in - NNW 10.4 mph - N/A   Clear
9:14 PM -16.6 °F -36.8 °F -23.8 °F 70% 30.62 in - NNW 10.4 mph - N/A   Clear
9:33 PM -16.6 °F -36.8 °F -23.8 °F 70% 30.63 in - NNW 10.4 mph - N/A   Clear
9:53 PM -16.6 °F -35.7 °F -23.8 °F 70% 30.63 in - NNW 9.2 mph - N/A   Clear
10:13 PM -16.6 °F -35.7 °F -23.8 °F 70% 30.63 in - NNW 9.2 mph - N/A   Clear
10:33 PM -16.6 °F -34.4 °F -23.8 °F 70% 30.63 in - NNW 8.1 mph - N/A   Clear
10:53 PM -16.6 °F -35.7 °F -23.8 °F 70% 30.64 in - North 9.2 mph - N/A   Clear
11:13 PM -16.6 °F -35.7 °F -23.8 °F 70% 30.63 in - NNW 9.2 mph - N/A   Clear
11:33 PM -18.4 °F -35.1 °F -25.6 °F 70% 30.63 in - NW 6.9 mph - N/A   Clear
11:53 PM -18.4 °F -33.4 °F -25.6 °F 70% 30.64 in - NW 5.8 mph - N/A   Clear